This is the latest recevied weather packets stored in our database for station/object SV9TNF-2. If no packets are shown the sender has not sent any weather packets the latest 10 day(s).
| Time | Temp. | Humidity | Pressure | Rain* | Wind** | Luminosity | Snow |
|---|---|---|---|---|---|---|---|
| 1777111795 | 15° C | 90% | 1017.3 hPa | 0 mm | 7.6 m/s, 270° | - | - |
| 1777111494 | 15° C | 91% | 1017.3 hPa | 0 mm | 4.47 m/s, 274° | - | - |
| 1777111194 | 14.44° C | 92% | 1017.3 hPa | 0 mm | 3.13 m/s, 234° | - | - |
| 1777110894 | 14.44° C | 93% | 1017.3 hPa | 0 mm | 4.02 m/s, 294° | - | - |
| 1777110593 | 13.89° C | 93% | 1017.3 hPa | 0 mm | 6.26 m/s, 255° | - | - |
| 1777110294 | 13.89° C | 94% | 1017.3 hPa | 0 mm | 3.13 m/s, 281° | - | - |
| 1777109994 | 13.33° C | 94% | 1017.3 hPa | 0 mm | 3.58 m/s, 300° | - | - |
| 1777109693 | 13.33° C | 94% | 1017.6 hPa | 0 mm | 1.79 m/s, 270° | - | - |
| 1777109393 | 13.33° C | 94% | 1017.6 hPa | 0 mm | 6.71 m/s, 256° | - | - |
| 1777109093 | 13.33° C | 95% | 1017.6 hPa | 0 mm | 3.13 m/s, 277° | - | - |
| 1777108793 | 13.33° C | 95% | 1018 hPa | 1.27 mm | 1.79 m/s, 267° | - | - |
| 1777108493 | 12.78° C | 95% | 1018 hPa | 2.54 mm | 1.79 m/s, 270° | - | - |
| 1777108193 | 12.78° C | 95% | 1018 hPa | 2.54 mm | 0.45 m/s, 252° | - | - |
| 1777107893 | 12.78° C | 95% | 1018 hPa | 2.54 mm | 3.58 m/s, 249° | - | - |
| 1777107593 | 12.78° C | 95% | 1018 hPa | 1.27 mm | 5.36 m/s, 233° | - | - |
| 1777107293 | 12.78° C | 95% | 1018 hPa | 1.27 mm | 0.89 m/s, 243° | - | - |
| 1777106992 | 12.78° C | 95% | 1018 hPa | 1.27 mm | 5.36 m/s, 268° | - | - |
| 1777106692 | 12.78° C | 95% | 1018 hPa | 1.27 mm | 4.02 m/s, 257° | - | - |
| 1777106393 | 12.78° C | 95% | 1018 hPa | 0 mm | 2.68 m/s, 255° | - | - |
| 1777106092 | 12.78° C | 94% | 1018 hPa | 0 mm | 2.68 m/s, 269° | - | - |
| 1777105792 | 12.22° C | 95% | 1018 hPa | 1.27 mm | 1.34 m/s, 259° | - | - |
| 1777105492 | 12.22° C | 95% | 1018 hPa | 6.35 mm | 0.89 m/s, 278° | - | - |
| 1777105192 | 12.22° C | 95% | 1018 hPa | 7.87 mm | 0 m/s | - | - |
| 1777104892 | 11.67° C | 95% | 1018 hPa | 3.81 mm | 3.13 m/s, 253° | - | - |
| 1777104591 | 11.67° C | 95% | 1018 hPa | 2.54 mm | 3.58 m/s, 250° | - | - |
* Rain latest hour (hover to see other rain measurements)
** Current wind speed in m/s (hover to see current wind gust speed)